This demonstration page uses our WeatherBlox Daily Observations layout. Learn more.

Left ArrowRight Arrow

40.92945, -100.16068

Hourly Observations for February 19, 2021

Temp ( °F °C ) Dew Point ( °F °C ) Humidity (%) Winds ( mph kmh ) Pressure ( in mb ) Visibility ( mi km ) Precip ( " mm )
12:15 am 00:15 Mostly Cloudy with Mist and Fog 3 -15.9 1 -17.5 88 88 WNW 3 6 30.55 1034 1.5 2.41401 N/A
12:35 am 00:35 Mostly Cloudy with Mist and Fog 1 -17 -3 -19.4 82 82 W 5 7 30.56 1035 0.75 1.207005 N/A
12:55 am 00:55 Clear -2 -19 -7 -21.4 81 81 N N/A 30.57 1035 10 16.0934 N/A
1:15 am 01:15 Cloudy with Freezing Fog N/A -3 -19.6 85 85 N N/A 30.56 1035 0.25 0.402335 N/A
1:35 am 01:35 Partly Cloudy with Mist and Fog 1 -17.3 -3 -19.5 83 83 WNW 3 6 30.55 1035 4 6.43736 N/A
1:55 am 01:55 Hazy -5 -20.4 -10 -23.1 79 79 N N/A 30.59 1036 5 8.0467 N/A
2:15 am 02:15 Partly Cloudy -3 -19.5 -7 -21.7 83 83 WNW 3 6 30.58 1036 7 11.26538 N/A
2:35 am 02:35 Mostly Cloudy -1 -18.6 -5 -20.8 83 83 N N/A 30.56 1035 7 11.26538 N/A
2:55 am 02:55 Cloudy 2 -16.9 -2 -18.9 85 85 NW 6 9 30.53 1034 7 11.26538 N/A
3:15 am 03:15 Mostly Cloudy 3 -16 N/A 85 85 WNW 6 9 30.51 1033 10 16.0934 N/A
3:35 am 03:35 Clear -1 -18.5 -6 -20.9 82 82 W 3 6 30.53 1034 10 16.0934 N/A
3:55 am 03:55 Clear -1 -18.4 -5 -20.6 83 83 W 3 6 30.53 1034 10 16.0934 N/A
4:15 am 04:15 Clear -1 -18.1 -5 -20.6 81 81 WNW 3 6 30.51 1033 7 11.26538 N/A
4:35 am 04:35 Partly Cloudy N/A -4 -20.2 83 83 N N/A 30.5 1033 7 11.26538 N/A
4:55 am 04:55 Clear -1 -18.2 -5 -20.5 82 82 N N/A 30.49 1033 7 11.26538 N/A
5:15 am 05:15 Clear -5 -20.3 -9 -22.7 81 81 SW 3 6 30.52 1033 7 11.26538 N/A
5:35 am 05:35 Clear -4 -20 -8 -22.4 81 81 N N/A 30.51 1033 7 11.26538 N/A
5:55 am 05:55 Clear -3 -19.2 -6 -21.3 84 84 N N/A 30.49 1033 7 11.26538 N/A
6:15 am 06:15 Clear with Mist and Fog -1 -18.3 -5 -20.5 83 83 W 3 6 30.48 1032 5 8.0467 N/A
6:35 am 06:35 Clear -2 -19 -6 -21.2 83 83 N N/A 30.48 1032 7 11.26538 N/A
6:55 am 06:55 Clear -5 -20.4 -9 -22.9 81 81 N N/A 30.48 1032 7 11.26538 N/A
7:15 am 07:15 Clear -3 -19.4 -7 -21.8 81 81 N N/A 30.47 1032 7 11.26538 N/A
7:35 am 07:35 Sunny with Mist and Fog -5 -20.3 -9 -22.7 81 81 N N/A 30.49 1032 5 8.0467 N/A
7:55 am 07:55 Hazy -7 -21.8 -12 -24.6 78 78 N N/A 30.52 1033 4 6.43736 N/A
8:15 am 08:15 Hazy N/A N/A N/A N N/A N/A 5 8.0467 N/A
8:35 am 08:35 Sunny N/A N/A N/A N N/A N/A 7 11.26538 N/A
8:55 am 08:55 Sunny -3 -19.4 -8 -22 80 80 N N/A 30.49 1032 7 11.26538 N/A
9:15 am 09:15 Sunny 11 -11.9 8 -13.3 89 89 N N/A 30.4 1030 7 11.26538 N/A
9:35 am 09:35 Sunny 1 -17.2 -3 -19.4 83 83 N N/A 30.46 1032 7 11.26538 N/A
9:55 am 09:55 Sunny with Mist and Fog 3 -16 -1 -18.1 84 84 N N/A 30.43 1030 5 8.0467 N/A
10:15 am 10:15 Sunny 6 -14.6 2 -16.7 84 84 N N/A 30.42 1030 7 11.26538 N/A
10:35 am 10:35 Sunny with Mist and Fog 8 -13.2 5 -15.2 85 85 N N/A 30.4 1029 5 8.0467 N/A
10:55 am 10:55 Sunny with Mist and Fog 10 -12.5 6 -14.6 84 84 N N/A 30.39 1029 5 8.0467 N/A
11:15 am 11:15 Sunny with Mist and Fog 12 -11.1 8 -13.1 85 85 NW 3 6 30.38 1029 5 8.0467 N/A
11:35 am 11:35 Sunny 14 -10.1 10 -12.5 83 83 N N/A 30.36 1028 7 11.26538 N/A
11:55 am 11:55 Sunny 15 -9.5 10 -12.1 82 82 N N/A 30.36 1028 7 11.26538 N/A
12:15 pm 12:15 Sunny 16 -8.9 11 -11.7 80 80 NNW 3 6 30.34 1027 7 11.26538 N/A
12:35 pm 12:35 Partly Cloudy 17 -8.3 12 -11.3 79 79 NNW 5 7 30.32 1027 7 11.26538 N/A
12:55 pm 12:55 Partly Cloudy 18 -7.9 12 -11.1 78 78 NNW 5 7 30.32 1027 7 11.26538 N/A
1:15 pm 13:15 Mostly Cloudy 19 -7.2 13 -10.5 78 78 N N/A 30.3 1026 10 16.0934 N/A
1:30 pm 13:30 Partly Cloudy 19 -7.1 13 -10.5 77 77 N 3 6 30.29 1026 10 16.0934 N/A
1:55 pm 13:55 Sunny 20 -6.6 14 -10.1 76 76 N N/A 30.27 1025 10 16.0934 N/A
2:15 pm 14:15 Sunny 21 -6.1 14 -9.8 75 75 N N/A 30.26 1025 10 16.0934 N/A
2:35 pm 14:35 Sunny 22 -5.8 15 -9.7 74 74 N N/A 30.25 1024 10 16.0934 N/A
2:55 pm 14:55 Sunny 22 -5.6 15 -9.6 74 74 N N/A 30.24 1024 10 16.0934 N/A
3:15 pm 15:15 Partly Cloudy 23 -5.2 15 -9.2 74 74 N N/A 30.23 1024 10 16.0934 N/A
3:35 pm 15:35 Mostly Cloudy 23 -5 16 -8.8 75 75 ENE 5 7 30.22 1023 10 16.0934 N/A
3:55 pm 15:55 Mostly Cloudy 24 -4.7 17 -8.5 75 75 NE 3 6 30.22 1024 10 16.0934 N/A
4:15 pm 16:15 Mostly Cloudy 24 -4.5 17 -8.1 76 76 N N/A 30.22 1023 7 11.26538 N/A
4:35 pm 16:35 Cloudy 25 -4 18 -7.9 75 75 SSE 5 7 30.22 1023 7 11.26538 N/A
4:55 pm 16:55 Cloudy 26 -3.6 19 -7.5 75 75 SSE 5 7 30.2 1023 10 16.0934 N/A
5:15 pm 17:15 Cloudy 26 -3.2 19 -7.2 74 74 S 7 11 30.19 1022 10 16.0934 N/A
5:35 pm 17:35 Cloudy 26 -3.5 17 -8.1 71 71 SSW 9 15 30.2 1023 10 16.0934 N/A
5:55 pm 17:55 Partly Cloudy 26 -3.5 17 -8.1 71 71 SSW 5 7 30.2 1023 10 16.0934 N/A
6:15 pm 18:15 Sunny 23 -5 16 -8.7 76 76 WSW 5 7 30.22 1023 10 16.0934 N/A
6:35 pm 18:35 Mostly Cloudy 22 -5.6 15 -9.5 74 74 W 5 7 30.23 1024 10 16.0934 N/A
6:55 pm 18:55 Mostly Cloudy 22 -5.4 16 -9 76 76 SW 6 9 30.24 1024 10 16.0934 N/A
7:15 pm 19:15 Mostly Cloudy 19 -7.1 13 -10.5 77 77 WSW 5 7 30.26 1025 10 16.0934 N/A
7:35 pm 19:35 Cloudy 22 -5.5 15 -9.2 75 75 WSW 3 6 30.24 1024 10 16.0934 N/A
7:55 pm 19:55 Cloudy 22 -5.5 15 -9.2 75 75 N N/A 30.24 1024 10 16.0934 N/A
8:15 pm 20:15 Partly Cloudy 22 -5.4 16 -9.1 75 75 N N/A 30.24 1024 10 16.0934 N/A
8:35 pm 20:35 Partly Cloudy 20 -6.9 16 -9 85 85 N N/A 30.26 1025 10 16.0934 N/A
8:55 pm 20:55 Partly Cloudy 16 -8.8 13 -10.3 89 89 N N/A 30.29 1026 10 16.0934 N/A
9:15 pm 21:15 Partly Cloudy 16 -8.9 12 -11.2 84 84 N N/A 30.29 1026 10 16.0934 N/A
9:35 pm 21:35 Partly Cloudy 13 -10.3 11 -11.7 90 90 N N/A 30.3 1026 10 16.0934 N/A
9:55 pm 21:55 Clear 12 -11.2 8 -13.2 85 85 N 6 9 30.31 1027 7 11.26538 N/A
10:15 pm 22:15 Clear 9 -12.6 7 -14 89 89 NNE 3 6 30.34 1027 7 11.26538 N/A
10:35 pm 22:35 Clear 12 -11.3 9 -12.7 90 90 N N/A 30.32 1027 7 11.26538 N/A
10:55 pm 22:55 Clear 9 -12.9 6 -14.7 87 87 S 3 6 30.34 1028 7 11.26538 N/A
11:15 pm 23:15 Clear 8 -13.5 5 -15.1 88 88 N N/A 30.35 1028 7 11.26538 N/A
11:35 pm 23:35 Clear 6 -14.2 3 -15.9 87 87 N N/A 30.34 1027 7 11.26538 N/A
11:55 pm 23:55 Clear 5 -14.8 1 -17 83 83 W 3 6 30.34 1028 7 11.26538 N/A

Powered by AerisWeather